Location: Absher
(46.5583°N, 107.9840°W)
Time: 07:51:29
(UTC+00:00)

TIGRISAT - Pass Details

Date: 07 April 2023
Orbit: 599 x 682 km, 97.7° (Epoch: 28 May)

Event Time Altitude Azimuth Distance (km) Brightness Sun altitude
Rises 10:24:28 0° 113° (ESE) 2,977 ? -22.0°
Reaches altitude 10° 10:27:42 10° 88° (E) 2,088 ? -21.5°
Maximum altitude 10:29:56 14° 58° (ENE) 1,864 ? -21.2°
Drops below altitude 10° 10:32:12 10° 29° (NNE) 2,115 ? -20.9°
Sets 10:35:30 0° 4° (N) 3,047 ? -20.5°
